Location: *
(51.8167°N, 12.5000°E)
Time: 14:37:09
(UTC+00:00)

Cosmos 2278 Rocket - Pass Details

Date: 16 September 2019
Orbit: 839 x 847 km, 71.0° (Epoch: 20 October)

Event Time Altitude Azimuth Distance (km) Brightness Sun altitude
Exits shadow 23:51:53 25° 71° (ENE) 1,644 3.9 -34.8°
Drops below altitude 10° 23:54:52 10° 46° (NE) 2,478 5.2 -34.7°
Sets 23:57:33 0° 36° (NE) 3,419 6.3 -34.6°
